Lulu Pass Weather Station

This weather station provides temperature, relative humidity (RH), wind speed, gust or max wind speed, and wind direction at 10014ft near Lulu Pass at the head of Fisher Creek. This data can be used with temperature and precipitation data from the Fisher Creek SNOTEL site.

This weather station was purchased by the Friends of the Avalanche Center.

If the data has not been updated recently you can view it directly on datagarrison.com

Elevation
10014ft
Jump to table bottom
Date Time Temperature
deg F
RH, % Wind Speed Wind Gust Wind Direction
11/29/21 15:00 30.5 73 14 29 SW - 220
11/29/21 14:00 30.6 76 10 28 SW - 227
11/29/21 13:00 28.0 83 14 29 SW - 216
11/29/21 12:00 27.4 86 12 29 SW - 216
11/29/21 11:00 27.3 90 10 22 SW - 213
11/29/21 10:00 25.0 93 10 22 SW - 211
11/29/21 09:00 23.8 96 9 20 SW - 222
11/29/21 08:00 23.7 96 9 19 W - 268
11/29/21 07:00 23.8 97 10 24 W - 274
11/29/21 06:00 24.2 97 11 21 W - 275
11/29/21 05:00 25.0 97 14 25 W - 279
11/29/21 04:00 25.3 98 15 28 W - 284
11/29/21 03:00 25.2 97 17 29 W - 291
11/29/21 02:00 25.5 95 17 30 W - 279
11/29/21 01:00 25.8 94 16 36 W - 277
11/29/21 00:00 26.4 95 12 30 SW - 233
11/28/21 23:00 26.9 97 12 31 SW - 230
11/28/21 22:00 26.8 97 11 28 SW - 232
11/28/21 21:00 26.9 98 9 28 SW - 237
11/28/21 20:00 26.3 98 9 22 SW - 247
11/28/21 19:00 25.9 97 10 21 W - 272
11/28/21 18:00 26.2 95 15 27 W - 281
11/28/21 17:00 27.1 95 13 28 W - 274
11/28/21 16:00 28.5 96 10 22 SW - 241
11/28/21 15:00 29.2 96 11 22 SW - 226
11/28/21 14:00 28.2 97 9 25 SW - 237
11/28/21 13:00 27.1 97 10 26 SW - 229
11/28/21 12:00 27.5 97 9 21 SW - 219
11/28/21 11:00 26.3 97 7 19 SW - 232
11/28/21 10:00 25.8 97 6 16 W - 277
11/28/21 09:00 25.1 97 7 15 SW - 215
11/28/21 08:00 25.1 97 5 12 SW - 234
11/28/21 07:00 25.3 97 6 12 W - 254
11/28/21 06:00 24.2 96 5 12 W - 267
11/28/21 05:00 23.1 96 7 17 W - 282
11/28/21 04:00 21.9 96 7 14 W - 277
11/28/21 03:00 21.4 95 8 15 W - 278
11/28/21 02:00 20.4 95 8 21 SW - 240
11/28/21 01:00 20.3 94 6 17 SW - 225
11/28/21 00:00 20.8 93 8 20 SW - 213
11/27/21 23:00 20.9 93 8 21 SW - 227
11/27/21 22:00 20.7 89 7 13 W - 275
11/27/21 21:00 20.7 90 7 16 W - 250
11/27/21 20:00 20.6 87 9 21 SW - 244
11/27/21 19:00 20.4 81 9 19 W - 251
11/27/21 18:00 21.5 74 9 18 W - 265
11/27/21 17:00 22.9 75 9 21 W - 267
11/27/21 16:00 23.8 82 9 16 NW - 296
11/27/21 15:00 22.5 84 7 16 W - 264
11/27/21 14:00 21.2 85 10 18 W - 288